EW5657 Weather Reports


Display with metric or nautical units.
time (UTC)temp
F
wind
direction
speed
MPH
gust
MPH
rain 1hr
in
rain 24hr
in
rain mn
in
humidity
%
barometer
mb
20260831151022 52 322 1.0 6.0 0.00 0.00 0.00 90 1024.5
20260831150529 51 206 0.0 0.0 0.00 0.00 0.00 89 1024.6
20260831150521 52 264 0.0 3.0 0.00 0.00 0.00 90 1024.5
20260831150020 51 244 0.0 3.0 0.00 0.00 0.00 90 1024.6
20260831145025 51 206 0.0 0.0 0.00 0.00 0.00 89 1024.7
20260831144024 51 204 0.0 0.0 0.00 0.00 0.00 89 1025.0
20260831144018 51 204 0.0 0.0 0.00 0.00 0.00 89 1024.9
20260831143644 51 204 0.0 0.0 0.00 0.00 0.00 90 1025.0
20260831142527 51 204 0.0 0.0 0.00 0.00 0.00 89 1025.3
20260831142516 51 204 0.0 0.0 0.00 0.00 0.00 90 1025.1
20260831142018 51 204 0.0 0.0 0.00 0.00 0.00 90 1025.2
20260831141017 51 204 0.0 0.0 0.00 0.00 0.00 90 1025.4
20260831140522 51 204 0.0 0.0 0.00 0.00 0.00 90 1025.6
20260831140516 51 204 0.0 0.0 0.00 0.00 0.00 90 1025.5
20260831140031 51 204 0.0 0.0 0.00 0.00 0.00 90 1025.6
20260831140017 51 204 0.0 0.0 0.00 0.00 0.00 90 1025.6
20260831135016 50 204 0.0 0.0 0.00 0.00 0.00 90 1025.7
20260831134519 51 204 0.0 0.0 0.00 0.00 0.00 90 1025.8
20260831134016 50 204 0.0 0.0 0.00 0.00 0.00 89 1025.9
20260831133515 50 204 0.0 0.0 0.00 0.00 0.00 89 1025.9
20260831133017 51 204 0.0 0.0 0.00 0.00 0.00 89 1026.0
20260831132517 51 204 0.0 0.0 0.00 0.00 0.00 89 1026.1
20260831132020 51 204 0.0 0.0 0.00 0.00 0.00 89 1026.3
20260831132013 51 204 0.0 0.0 0.00 0.00 0.00 89 1026.2
20260831131011 51 204 0.0 0.0 0.00 0.00 0.00 89 1026.4
20260831130513 51 204 0.0 0.0 0.00 0.00 0.00 89 1026.4
20260831130013 51 204 0.0 0.0 0.00 0.00 0.00 89 1026.5
20260831125512 50 204 0.0 0.0 0.00 0.00 0.00 89 1026.6
20260831125021 50 204 0.0 0.0 0.00 0.00 0.00 88 1026.7
20260831125013 50 204 0.0 0.0 0.00 0.00 0.00 88 1026.6
20260831124012 51 204 0.0 0.0 0.00 0.00 0.00 88 1026.7
20260831123518 51 204 0.0 0.0 0.00 0.00 0.00 88 1026.9
20260831123511 51 204 0.0 0.0 0.00 0.00 0.00 88 1026.8
20260831122520 51 204 0.0 0.0 0.00 0.00 0.00 88 1026.9
20260831122512 51 204 0.0 0.0 0.00 0.00 0.00 88 1026.9
20260831121512 51 204 0.0 0.0 0.00 0.00 0.00 87 1027.0
20260831121013 51 204 0.0 0.0 0.00 0.00 0.00 87 1026.9
20260831120511 51 204 0.0 0.0 0.00 0.00 0.00 87 1027.0
20260831120013 51 204 0.0 0.0 0.00 0.00 0.00 87 1026.9
20260831115512 51 204 0.0 0.0 0.00 0.00 0.00 87 1026.9
20260831115013 51 204 0.0 0.0 0.00 0.00 0.00 87 1027.0
20260831114511 51 204 0.0 0.0 0.00 0.00 0.00 87 1027.0
20260831114013 51 204 0.0 0.0 0.00 0.00 0.00 86 1027.1
20260831113511 51 204 0.0 0.0 0.00 0.00 0.00 86 1027.1
20260831113012 51 204 0.0 0.0 0.00 0.00 0.00 86 1027.1
20260831112511 52 204 0.0 0.0 0.00 0.00 0.00 86 1027.2
20260831112012 52 204 0.0 0.0 0.00 0.00 0.00 86 1027.1
20260831111511 52 204 0.0 0.0 0.00 0.00 0.00 85 1027.1
20260831111012 52 204 0.0 0.0 0.00 0.00 0.00 85 1027.1
20260831110503 52 204 0.0 0.0 0.00 0.00 0.00 85 1027.1
20260831110005 52 204 0.0 0.0 0.00 0.00 0.00 84 1027.2
20260831105503 52 204 0.0 0.0 0.00 0.00 0.00 84 1027.3
20260831105003 53 204 0.0 0.0 0.00 0.00 0.00 84 1027.3
20260831104504 53 204 0.0 0.0 0.00 0.00 0.00 84 1027.3
20260831104004 53 204 0.0 0.0 0.00 0.00 0.00 84 1027.4
20260831103511 53 204 0.0 0.0 0.00 0.00 0.00 83 1027.4
20260831103505 53 204 0.0 0.0 0.00 0.00 0.00 83 1027.4
20260831103002 53 204 0.0 0.0 0.00 0.00 0.00 83 1027.4
20260831102002 53 204 0.0 0.0 0.00 0.00 0.00 83 1027.5
20260831101502 54 204 0.0 0.0 0.00 0.00 0.00 82 1027.5
20260831101002 54 204 0.0 0.0 0.00 0.00 0.00 82 1027.4
20260831100503 54 204 0.0 0.0 0.00 0.00 0.00 82 1027.4
20260831095959 54 204 0.0 0.0 0.00 0.00 0.00 81 1027.4
20260831095459 54 204 0.0 0.0 0.00 0.00 0.00 81 1027.4
20260831094958 55 204 0.0 0.0 0.00 0.00 0.00 81 1027.4
20260831094506 55 204 0.0 0.0 0.00 0.00 0.00 80 1027.5
20260831094500 55 204 0.0 0.0 0.00 0.00 0.00 80 1027.5
20260831093629 55 204 0.0 0.0 0.00 0.00 0.00 81 1027.6
20260831093505 55 204 0.0 0.0 0.00 0.00 0.00 81 1027.7
20260831093501 55 204 0.0 0.0 0.00 0.00 0.00 80 1027.6
20260831092000 55 204 0.0 0.0 0.00 0.00 0.00 80 1027.6
20260831091502 55 204 0.0 0.0 0.00 0.00 0.00 80 1027.6
20260831091125 56 204 0.0 0.0 0.00 0.00 0.00 80 1027.7
20260831090459 56 204 0.0 0.0 0.00 0.00 0.00 80 1027.7
20260831085500 56 204 0.0 0.0 0.00 0.00 0.00 80 1027.8
20260831085003 56 204 0.0 0.0 0.00 0.00 0.00 80 1027.8
20260831084959 56 204 0.0 0.0 0.00 0.00 0.00 80 1027.8
20260831083958 56 204 0.0 0.0 0.00 0.00 0.00 81 1027.8
20260831083457 56 204 0.0 0.0 0.00 0.00 0.00 81 1027.8
20260831082957 57 204 0.0 0.0 0.00 0.00 0.00 82 1027.8
20260831082457 57 204 0.0 0.0 0.00 0.00 0.00 82 1027.9
20260831082006 57 204 0.0 0.0 0.00 0.00 0.00 82 1027.8
20260831082000 57 204 0.0 0.0 0.00 0.00 0.00 82 1027.9
20260831080958 57 204 0.0 0.0 0.00 0.00 0.00 82 1027.9
20260831080458 57 204 0.0 0.0 0.00 0.00 0.00 83 1027.9
20260831075957 57 204 0.0 0.0 0.00 0.00 0.00 83 1027.9
20260831075458 57 204 0.0 0.0 0.00 0.00 0.00 83 1027.8
20260831075000 57 204 0.0 0.0 0.00 0.00 0.00 83 1027.9
20260831074502 58 204 0.0 0.0 0.00 0.00 0.00 82 1028.0
20260831074457 57 204 0.0 0.0 0.00 0.00 0.00 82 1027.9
20260831073457 58 204 0.0 0.0 0.00 0.00 0.00 82 1027.9
20260831072956 58 204 0.0 2.0 0.00 0.00 0.00 81 1027.9
20260831072623 58 204 1.0 3.0 0.00 0.00 0.00 80 1028.0
20260831072610 58 204 0.0 3.0 0.00 0.00 0.00 81 1028.0
20260831071500 58 204 1.0 3.0 0.00 0.00 0.00 79 1028.0
20260831071454 58 205 1.0 3.0 0.00 0.00 0.00 79 1028.0
20260831070456 59 204 1.0 4.0 0.00 0.00 0.00 78 1028.0
20260831070000 59 208 1.0 4.0 0.00 0.00 0.00 76 1028.1
20260831065954 59 206 1.0 4.0 0.00 0.00 0.00 77 1028.1
20260831065456 59 208 1.0 4.0 0.00 0.00 0.00 77 1028.1
20260831064456 60 213 1.0 4.0 0.00 0.00 0.00 76 1028.2
20260831063956 60 217 1.0 4.0 0.00 0.00 0.00 76 1028.2
20260831063456 59 212 1.0 3.0 0.00 0.00 0.00 77 1028.2
20260831062954 59 214 1.0 3.0 0.00 0.00 0.00 77 1028.2
20260831062450 59 215 1.0 4.0 0.00 0.00 0.00 77 1028.3
20260831061952 59 215 1.0 4.0 0.00 0.00 0.00 77 1028.4
20260831061451 59 220 1.0 3.0 0.00 0.00 0.00 77 1028.4
20260831060952 59 207 1.0 3.0 0.00 0.00 0.00 77 1028.4
20260831060448 58 185 2.0 5.0 0.00 0.00 0.00 77 1028.5
20260831055952 58 193 2.0 8.0 0.00 0.00 0.00 77 1028.6
20260831055448 58 202 2.0 8.0 0.00 0.00 0.00 76 1028.6
20260831054950 58 202 2.0 6.0 0.00 0.00 0.00 76 1028.7
20260831054448 58 239 2.0 5.0 0.00 0.00 0.00 76 1028.8
20260831053948 58 219 2.0 7.0 0.00 0.00 0.00 78 1028.8
20260831053446 58 195 2.0 7.0 0.00 0.00 0.00 78 1028.8
20260831052946 58 200 2.0 5.0 0.00 0.00 0.00 78 1028.8
20260831052444 58 201 2.0 5.0 0.00 0.00 0.00 78 1028.9
20260831051943 58 192 2.0 5.0 0.00 0.00 0.00 78 1028.9
20260831051442 58 161 2.0 4.0 0.00 0.00 0.00 78 1029.0
20260831050944 58 210 2.0 4.0 0.00 0.00 0.00 78 1029.0
20260831050444 58 213 2.0 4.0 0.00 0.00 0.00 78 1029.1
20260831045943 58 224 1.0 4.0 0.00 0.00 0.00 79 1029.2
20260831045442 57 224 2.0 6.0 0.00 0.00 0.00 80 1029.3
20260831044944 57 224 2.0 6.0 0.00 0.00 0.00 79 1029.5
20260831044443 57 214 2.0 7.0 0.00 0.00 0.00 79 1029.6
20260831043944 57 224 1.0 7.0 0.00 0.00 0.00 80 1029.7
20260831043441 57 194 1.0 5.0 0.00 0.00 0.00 80 1029.7
20260831042949 56 196 2.0 5.0 0.00 0.00 0.00 81 1029.9
20260831042945 56 191 2.0 5.0 0.00 0.00 0.00 81 1029.8
20260831041949 56 204 3.0 8.0 0.00 0.00 0.00 80 1030.1
20260831041944 56 197 2.0 8.0 0.00 0.00 0.00 82 1030.0
20260831040942 56 185 2.0 5.0 0.00 0.00 0.00 81 1030.2
20260831040444 56 197 2.0 6.0 0.00 0.00 0.00 82 1030.3
20260831035943 55 204 2.0 6.0 0.00 0.00 0.00 81 1030.3
20260831035448 56 191 3.0 8.0 0.00 0.00 0.00 80 1030.4
20260831035444 55 203 3.0 6.0 0.00 0.00 0.00 81 1030.3
20260831034444 56 211 2.0 8.0 0.00 0.00 0.00 80 1030.5
20260831033943 56 215 2.0 5.0 0.00 0.00 0.00 81 1030.6
20260831033442 56 206 2.0 5.0 0.00 0.00 0.00 81 1030.7
20260831032940 56 180 2.0 5.0 0.00 0.00 0.00 81 1030.8
20260831032440 55 185 2.0 5.0 0.00 0.00 0.00 81 1030.9
20260831031940 56 206 2.0 6.0 0.00 0.00 0.00 81 1031.0
20260831031440 55 185 2.0 6.0 0.00 0.00 0.00 82 1031.0
20260831030940 55 203 2.0 6.0 0.00 0.00 0.00 81 1031.0
20260831030442 55 175 2.0 6.0 0.00 0.00 0.00 81 1031.2
20260831025940 55 201 2.0 6.0 0.00 0.00 0.00 82 1031.2
20260831025440 55 207 2.0 8.0 0.00 0.00 0.00 82 1031.4
20260831024939 55 200 3.0 8.0 0.00 0.00 0.00 82 1031.6
20260831024441 55 195 2.0 8.0 0.00 0.00 0.00 81 1031.6
20260831023937 55 233 3.0 9.0 0.00 0.00 0.00 82 1031.7
20260831023439 55 222 3.0 9.0 0.00 0.00 0.00 82 1031.7
20260831022936 55 175 2.0 6.0 0.00 0.00 0.00 82 1031.9
20260831022443 55 224 2.0 6.0 0.00 0.00 0.00 82 1032.1
20260831022437 55 190 2.0 6.0 0.00 0.00 0.00 82 1032.0
20260831021435 55 222 2.0 7.0 0.00 0.00 0.00 82 1032.2
20260831020932 55 256 3.0 8.0 0.00 0.00 0.00 82 1032.2
20260831020434 55 235 3.0 8.0 0.00 0.00 0.00 82 1032.3
20260831015933 55 198 3.0 5.0 0.00 0.00 0.00 82 1032.4
20260831015433 55 206 3.0 5.0 0.00 0.00 0.00 81 1032.5
20260831014931 55 233 2.0 5.0 0.00 0.00 0.00 82 1032.5
20260831014431 55 195 2.0 5.0 0.00 0.00 0.00 83 1032.7
20260831013936 54 193 2.0 5.0 0.00 0.00 0.00 84 1032.8
20260831013932 55 206 2.0 5.0 0.00 0.00 0.00 83 1032.7
20260831013429 54 230 2.0 5.0 0.00 0.00 0.00 84 1032.7
20260831012428 54 197 2.0 5.0 0.00 0.00 0.00 83 1032.9
20260831011931 54 197 1.0 4.0 0.00 0.00 0.00 85 1032.9
20260831011926 54 218 1.0 4.0 0.00 0.00 0.00 84 1032.9
20260831010927 54 195 2.0 4.0 0.00 0.00 0.00 85 1032.9
20260831010425 53 197 2.0 5.0 0.00 0.00 0.00 85 1033.0
20260831005927 53 197 1.0 5.0 0.00 0.00 0.00 85 1033.0
20260831005423 53 199 1.0 4.0 0.00 0.00 0.00 85 1033.1
20260831004924 53 185 1.0 5.0 0.00 0.00 0.00 85 1033.2
20260831004424 53 193 2.0 5.0 0.00 0.00 0.00 85 1033.2
20260831003924 53 202 2.0 5.0 0.00 0.00 0.00 85 1033.2
20260831003424 53 205 2.0 5.0 0.00 0.00 0.00 85 1033.3
20260831002923 53 212 1.0 4.0 0.00 0.00 0.00 85 1033.3
20260831002424 53 237 1.0 4.0 0.00 0.00 0.00 85 1033.3
20260831001924 53 205 1.0 3.0 0.00 0.00 0.00 86 1033.3
20260831001424 53 206 1.0 4.0 0.00 0.00 0.00 86 1033.3
20260831000924 53 191 1.0 4.0 0.00 0.00 0.00 86 1033.4
20260831000425 53 168 1.0 4.0 0.00 0.00 0.00 86 1033.4
20260830235923 53 156 1.0 4.0 0.00 0.00 0.00 86 1033.4
20260830235422 53 192 1.0 4.0 0.00 0.00 0.00 86 1033.3
20260830234929 53 208 0.0 4.0 0.00 0.00 0.00 86 1033.4
20260830234923 53 193 1.0 4.0 0.00 0.00 0.00 86 1033.4
20260830233922 53 210 0.0 5.0 0.00 0.00 0.00 87 1033.4
20260830233422 53 210 0.0 5.0 0.00 0.00 0.00 86 1033.4
20260830232923 53 221 0.0 3.0 0.00 0.00 0.00 87 1033.4
20260830232421 53 222 0.0 4.0 0.00 0.00 0.00 87 1033.4
20260830231923 52 221 1.0 4.0 0.00 0.00 0.00 87 1033.4
20260830231421 52 195 1.0 4.0 0.00 0.00 0.00 87 1033.4
20260830230921 52 193 0.0 4.0 0.00 0.00 0.00 87 1033.3
20260830230421 52 206 0.0 2.0 0.00 0.00 0.00 87 1033.3
20260830225921 52 206 0.0 3.0 0.00 0.00 0.00 88 1033.3
20260830225421 52 206 0.0 3.0 0.00 0.00 0.00 87 1033.3
20260830224921 52 210 0.0 2.0 0.00 0.00 0.00 88 1033.3
20260830224419 52 210 0.0 2.0 0.00 0.00 0.00 88 1033.3
20260830223920 52 210 0.0 3.0 0.00 0.00 0.00 88 1033.4
20260830223419 52 210 0.0 3.0 0.00 0.00 0.00 88 1033.4
20260830222921 52 208 0.0 3.0 0.00 0.00 0.00 88 1033.4
20260830222417 52 208 0.0 3.0 0.00 0.00 0.00 88 1033.4
20260830221919 52 208 0.0 2.0 0.00 0.00 0.00 88 1033.3
20260830221421 52 207 0.0 3.0 0.00 0.00 0.00 89 1033.3
20260830220918 52 207 0.0 3.0 0.00 0.00 0.00 89 1033.3
20260830220417 52 208 0.0 4.0 0.00 0.00 0.00 89 1033.3
20260830215919 52 208 1.0 4.0 0.00 0.00 0.00 89 1033.3
20260830215415 52 209 0.0 3.0 0.00 0.00 0.00 89 1033.3
20260830214917 52 208 0.0 2.0 0.00 0.00 0.00 89 1033.3
20260830214421 52 208 0.0 2.0 0.00 0.00 0.00 90 1033.3
20260830214415 52 208 0.0 2.0 0.00 0.00 0.00 89 1033.3
20260830213415 52 208 0.0 2.0 0.00 0.00 0.00 90 1033.2
20260830212915 52 208 0.0 2.0 0.00 0.00 0.00 90 1033.2
20260830212415 52 208 0.0 2.0 0.00 0.00 0.00 90 1033.1
20260830211914 51 208 0.0 2.0 0.00 0.00 0.00 90 1033.1
20260830211415 51 208 0.0 2.0 0.00 0.00 0.00 90 1033.1
20260830210913 51 208 0.0 2.0 0.00 0.00 0.00 90 1033.1
20260830210414 51 208 0.0 1.0 0.00 0.00 0.00 90 1033.1
20260830205919 51 208 0.0 1.0 0.00 0.00 0.00 90 1033.1
20260830205914 51 208 0.0 1.0 0.00 0.00 0.00 90 1033.1
20260830204918 51 208 0.0 1.0 0.00 0.00 0.00 90 1033.0
20260830204912 51 208 0.0 1.0 0.00 0.00 0.00 90 1033.1
20260830203919 51 208 0.0 1.0 0.00 0.00 0.00 90 1033.1
20260830203913 51 208 0.0 1.0 0.00 0.00 0.00 90 1033.0
20260830202912 51 208 0.0 1.0 0.00 0.00 0.00 90 1033.0
20260830202419 51 208 0.0 2.0 0.00 0.00 0.00 90 1033.0
20260830202413 51 208 0.0 2.0 0.00 0.00 0.00 90 1033.0
20260830201414 51 208 0.0 1.0 0.00 0.00 0.00 90 1032.9
20260830200913 51 208 0.0 1.0 0.00 0.00 0.00 90 1032.9
20260830200419 51 208 0.0 2.0 0.00 0.00 0.00 90 1032.9
20260830200415 51 208 0.0 2.0 0.00 0.00 0.00 90 1032.9
20260830200034 52 208 0.0 2.0 0.00 0.00 0.00 90 1032.9
20260830194913 52 208 0.0 2.0 0.00 0.00 0.00 90 1033.0
20260830194415 52 208 0.0 1.0 0.00 0.00 0.00 90 1033.0
20260830193912 52 208 0.0 2.0 0.00 0.00 0.00 90 1033.0
20260830193409 52 208 0.0 2.0 0.00 0.00 0.00 89 1032.9
20260830192909 52 208 0.0 2.0 0.00 0.00 0.00 89 1032.9
20260830192409 52 208 0.0 1.0 0.00 0.00 0.00 90 1032.9
20260830191909 52 208 0.0 3.0 0.00 0.00 0.00 90 1032.9
20260830191409 52 208 0.0 3.0 0.00 0.00 0.00 90 1032.9
20260830190910 52 209 0.0 2.0 0.00 0.00 0.00 90 1032.9
20260830190411 52 208 0.0 3.0 0.00 0.00 0.00 90 1032.9
20260830185909 52 208 0.0 3.0 0.00 0.00 0.00 90 1032.8
20260830185416 52 211 0.0 3.0 0.00 0.00 0.00 90 1032.9
20260830185409 52 211 0.0 3.0 0.00 0.00 0.00 90 1032.8
20260830185035 52 209 0.0 4.0 0.00 0.00 0.00 90 1032.9
20260830183909 52 208 1.0 4.0 0.00 0.00 0.00 90 1032.9
20260830183408 53 210 1.0 3.0 0.00 0.00 0.00 90 1032.9
20260830182909 53 199 0.0 5.0 0.00 0.00 0.00 90 1032.9
20260830182406 53 199 0.0 5.0 0.00 0.00 0.00 90 1032.8
20260830181912 53 214 0.0 2.0 0.00 0.00 0.00 90 1032.8
20260830181908 53 214 0.0 3.0 0.00 0.00 0.00 90 1032.9
20260830180906 53 214 0.0 4.0 0.00 0.00 0.00 90 1032.8
20260830180406 53 209 0.0 4.0 0.00 0.00 0.00 90 1032.8
20260830175904 53 227 0.0 4.0 0.00 0.00 0.00 90 1032.8
20260830175404 53 226 0.0 4.0 0.00 0.00 0.00 90 1032.9
20260830174903 53 226 0.0 3.0 0.00 0.00 0.00 90 1032.9
20260830174403 53 224 0.0 3.0 0.00 0.00 0.00 90 1032.9
20260830173910 54 175 0.0 3.0 0.00 0.00 0.00 89 1033.1
20260830173904 53 224 0.0 2.0 0.00 0.00 0.00 90 1033.0
20260830173403 54 180 0.0 3.0 0.00 0.00 0.00 89 1033.0
20260830172404 54 175 0.0 1.0 0.00 0.00 0.00 90 1033.1
20260830171910 54 175 0.0 1.0 0.00 0.00 0.00 90 1033.0
20260830171904 54 175 0.0 1.0 0.00 0.00 0.00 89 1033.0
20260830170910 54 175 0.0 0.0 0.00 0.00 0.00 90 1033.1
20260830170902 54 175 0.0 1.0 0.00 0.00 0.00 90 1033.0
20260830165909 54 175 0.0 0.0 0.00 0.00 0.00 90 1033.2
20260830165903 54 175 0.0 0.0 0.00 0.00 0.00 90 1033.2
20260830165525 54 175 0.0 0.0 0.00 0.00 0.00 90 1033.3
20260830164402 54 175 0.0 0.0 0.00 0.00 0.00 90 1033.2
20260830163902 54 175 0.0 0.0 0.00 0.00 0.00 90 1033.2
20260830163401 54 175 0.0 0.0 0.00 0.00 0.00 90 1033.3
20260830162900 54 175 0.0 0.0 0.00 0.00 0.00 90 1033.3
20260830162401 54 175 0.0 1.0 0.00 0.00 0.00 90 1033.3
20260830161859 54 175 0.0 1.0 0.00 0.00 0.00 90 1033.4
20260830161358 54 175 0.0 1.0 0.00 0.00 0.00 90 1033.3
20260830160900 54 175 0.0 1.0 0.00 0.00 0.00 90 1033.3
20260830160406 54 175 0.0 1.0 0.00 0.00 0.00 90 1033.4
20260830155905 54 175 0.0 0.0 0.00 0.00 0.00 90 1033.4
20260830155901 54 175 0.0 1.0 0.00 0.00 0.00 90 1033.4
20260830155525 54 175 0.0 0.0 0.00 0.00 0.00 90 1033.4
20260830154358 54 175 0.0 0.0 0.00 0.00 0.00 90 1033.4
20260830153858 54 175 0.0 0.0 0.00 0.00 0.00 90 1033.5
20260830153402 54 175 0.0 0.0 0.00 0.00 0.00 90 1033.5
20260830152858 54 175 0.0 0.0 0.00 0.00 0.00 90 1033.5
20260830152402 54 175 0.0 0.0 0.00 0.00 0.00 90 1033.5
20260830151902 54 175 0.0 0.0 0.00 0.00 0.00 90 1033.5
20260830151857 54 175 0.0 0.0 0.00 0.00 0.00 90 1033.6